PATHFINDER 1

Last updated on Mon Sep 07 2026 00:02:46 GMT+0000 (Coordinated Universal Time)

1 41787U 16059E 26249.60521085 .00000336 00000+0 66934-4 0 9991 2 41787 97.8223 245.2305 0027267 308.7625 51.1144 14.67748096531654
UTC large
Height (km)
Speed (km/s)
/
Latitude / Longitude
Inclination (degrees)
Orbital Period (minutes)
Azimuth
Elevation
Range (km)
Doppler Factor

Next 0 passes for location: London (51.5072 / 0.1276)

No passes found over London.
PATHFINDER 1